QPF
0.00 0.00 0.00 0.00 0.00 0.00 0.00 0.00 0.00 0.00 0.00 0.00 0.00 0.00 0.00 0.00 0.00 0.00 0.00 0.00 0.00 0.00 0.00 0.00 0.00 0.00 0.01 0.01 0.01 0.02 0.02 0.02 0.01 0.01 0.01 0.01 0.01 0.01 0.01 0.02 0.03 0.04 0.04
0.00 0.00 0.00 0.00 0.00 0.00 0.00 0.00 0.00 0.00 0.00 0.00 0.00 0.00 0.00 0.00 0.00 0.00 0.00 0.00 0.00 0.00 0.00 0.01 0.01 0.01 0.01 0.01 0.01 0.01 0.02 0.02 0.02 0.01 0.01 0.01 0.01 0.01 0.01 0.01 0.02 0.03 0.03
0.00 0.00 0.00 0.00 0.00 0.00 0.00 0.00 0.00 0.00 0.00 0.00 0.00 0.00 0.00 0.00 0.00 0.01 0.00 0.00 0.01 0.00 0.00 0.00 0.01 0.02 0.02 0.02 0.01 0.01 0.01 0.02 0.02 0.01 0.01 0.01 0.01 0.01 0.01 0.01 0.01 0.01 0.01
0.00 0.00 0.00 0.00 0.00 0.00 0.00 0.00 0.00 0.00 0.00 0.00 0.00 0.00 0.00 0.00 0.00 0.01 0.01 0.01 0.01 0.01 0.00 0.01 0.01 0.02 0.02 0.02 0.02 0.01 0.01 0.01 0.01 0.01 0.01 0.01 0.02 0.01 0.01 0.01 0.01 0.01 0.01
0.00 0.00 0.00 0.00 0.00 0.00 0.00 0.00 0.00 0.00 0.00 0.00 0.00 0.00 0.00 0.00 0.00 0.01 0.01 0.01 0.01 0.02 0.02 0.01 0.02 0.02 0.03 0.03 0.03 0.02 0.01 0.01 0.01 0.02 0.02 0.01 0.01 0.01 0.01 0.01 0.01 0.01 0.01
0.00 0.00 0.00 0.00 0.00 0.00 0.00 0.00 0.00 0.00 0.00 0.00 0.00 0.00 0.00 0.00 0.00 0.00 0.00 0.01 0.01 0.02 0.01 0.01 0.02 0.02 0.04 0.04 0.04 0.03 0.02 0.01 0.01 0.01 0.01 0.01 0.01 0.01 0.02 0.02 0.02 0.01 0.01
0.00 0.00 0.00 0.00 0.00 0.00 0.00 0.00 0.00 0.00 0.00 0.00 0.00 0.00 0.00 0.00 0.00 0.00 0.00 0.00 0.00 0.00 0.00 0.01 0.01 0.01 0.02 0.01 0.02 0.02 0.02 0.02 0.01 0.01 0.01 0.01 0.01 0.01 0.01 0.02 0.02 0.02 0.01
0.00 0.00 0.00 0.00 0.00 0.00 0.00 0.00 0.00 0.00 0.00 0.00 0.00 0.00 0.00 0.00 0.00 0.00 0.00 0.00 0.00 0.00 0.00 0.00 0.01 0.02 0.01 0.01 0.01 0.01 0.01 0.02 0.03 0.02 0.02 0.01 0.01 0.01 0.01 0.01 0.02 0.02 0.02
0.00 0.00 0.00 0.00 0.00 0.00 0.00 0.00 0.00 0.00 0.00 0.00 0.00 0.00 0.00 0.00 0.00 0.00 0.00 0.00 0.00 0.00 0.00 0.00 0.00 0.01 0.01 0.01 0.01 0.01 0.01 0.01 0.02 0.03 0.02 0.02 0.01 0.01 0.02 0.03 0.02 0.02 0.02
0.00 0.00 0.00 0.00 0.00 0.00 0.00 0.00 0.00 0.00 0.00 0.00 0.00 0.00 0.00 0.00 0.00 0.00 0.00 0.00 0.00 0.00 0.00 0.00 0.00 0.00 0.01 0.00 0.00 0.00 0.01 0.01 0.01 0.02 0.02 0.02 0.02 0.02 0.02 0.02 0.03 0.03 0.02
0.00 0.00 0.00 0.00 0.00 0.00 0.00 0.00 0.00 0.00 0.00 0.00 0.00 0.00 0.00 0.00 0.00 0.00 0.00 0.00 0.00 0.00 0.00 0.00 0.00 0.00 0.00 0.00 0.00 0.00 0.01 0.01 0.01 0.01 0.01 0.02 0.03 0.03 0.03 0.03 0.03 0.04 0.04
0.00 0.00 0.00 0.00 0.00 0.00 0.00 0.00 0.00 0.00 0.00 0.00 0.00 0.00 0.00 0.00 0.00 0.00 0.00 0.00 0.00 0.00 0.00 0.00 0.00 0.00 0.00 0.00 0.00 0.00 0.01 0.01 0.01 0.01 0.01 0.01 0.01 0.02 0.02 0.02 0.04 0.04 0.04
0.00 0.00 0.00 0.00 0.00 0.00 0.00 0.00 0.00 0.00 0.00 0.00 0.00 0.00 0.00 0.00 0.00 0.00 0.00 0.00 0.00 0.00 0.00 0.00 0.00 0.00 0.00 0.00 0.00 0.00 0.01 0.01 0.01 0.01 0.01 0.01 0.01 0.02 0.02 0.02 0.03 0.04 0.05
0.00 0.00 0.00 0.00 0.00 0.00 0.00 0.00 0.00 0.00 0.00 0.00 0.00 0.00 0.00 0.00 0.00 0.00 0.00 0.00 0.00 0.00 0.00 0.00 0.00 0.00 0.00 0.00 0.00 0.00 0.01 0.03 0.03 0.01 0.01 0.01 0.02 0.02 0.03 0.02 0.02 0.03 0.05
0.00 0.00 0.00 0.00 0.00 0.00 0.00 0.00 0.00 0.00 0.00 0.00 0.00 0.00 0.00 0.00 0.00 0.00 0.00 0.00 0.00 0.00 0.00 0.00 0.00 0.00 0.00 0.00 0.00 0.00 0.00 0.03 0.02 0.01 0.01 0.01 0.01 0.02 0.02 0.02 0.02 0.03 0.04
0.00 0.00 0.00 0.00 0.00 0.00 0.00 0.00 0.00 0.00 0.00 0.00 0.00 0.00 0.00 0.00 0.00 0.00 0.00 0.00 0.00 0.00 0.00 0.00 0.00 0.00 0.00 0.00 0.00 0.00 0.00 0.00 0.01 0.00 0.00 0.00 0.01 0.01 0.01 0.01 0.01 0.02 0.03
0.00 0.00 0.00 0.00 0.00 0.00 0.00 0.00 0.00 0.00 0.00 0.00 0.00 0.00 0.00 0.00 0.00 0.00 0.00 0.00 0.00 0.00 0.00 0.00 0.00 0.00 0.00 0.00 0.00 0.00 0.00 0.00 0.00 0.00 0.00 0.00 0.00 0.00 0.01 0.01 0.01 0.01 0.02
0.00 0.00 0.00 0.00 0.00 0.00 0.00 0.00 0.00 0.00 0.00 0.00 0.00 0.00 0.00 0.00 0.00 0.00 0.00 0.00 0.00 0.00 0.00 0.00 0.00 0.00 0.00 0.00 0.00 0.00 0.00 0.00 0.00 0.00 0.00 0.00 0.00 0.00 0.01 0.01 0.01 0.01 0.01
0.00 0.00 0.00 0.00 0.00 0.00 0.00 0.00 0.00 0.00 0.00 0.00 0.00 0.00 0.00 0.00 0.00 0.00 0.00 0.00 0.00 0.00 0.00 0.00 0.00 0.00 0.00 0.00 0.00 0.00 0.00 0.00 0.00 0.00 0.00 0.00 0.00 0.01 0.01 0.01 0.01 0.02 0.02
0.00 0.00 0.00 0.00 0.00 0.00 0.00 0.00 0.00 0.00 0.00 0.00 0.00 0.00 0.00 0.00 0.00 0.00 0.00 0.00 0.00 0.00 0.00 0.01 0.01 0.00 0.00 0.00 0.00 0.00 0.00 0.00 0.00 0.00 0.00 0.00 0.00 0.00 0.01 0.01 0.01 0.03 0.03
0.00 0.00 0.00 0.00 0.00 0.00 0.00 0.00 0.00 0.00 0.00 0.00 0.00 0.00 0.00 0.00 0.00 0.00 0.00 0.00 0.00 0.00 0.00 0.00 0.01 0.00 0.00 0.00 0.00 0.00 0.00 0.00 0.00 0.00 0.00 0.00 0.00 0.00 0.00 0.01 0.01 0.03 0.04
0.00 0.00 0.00 0.00 0.00 0.00 0.00 0.00 0.00 0.00 0.00 0.00 0.00 0.00 0.00 0.00 0.00 0.00 0.00 0.00 0.00 0.00 0.00 0.00 0.00 0.00 0.00 0.00 0.00 0.00 0.00 0.00 0.00 0.00 0.00 0.00 0.00 0.00 0.00 0.01 0.01 0.01 0.02
0.00 0.00 0.00 0.00 0.00 0.00 0.00 0.00 0.00 0.00 0.00 0.00 0.00 0.00 0.00 0.00 0.00 0.00 0.00 0.00 0.00 0.00 0.00 0.00 0.00 0.00 0.00 0.00 0.00 0.00 0.00 0.00 0.00 0.00 0.00 0.00 0.00 0.00 0.00 0.01 0.01 0.02 0.02
0.00 0.00 0.00 0.00 0.00 0.00 0.00 0.00 0.00 0.00 0.00 0.00 0.00 0.00 0.00 0.00 0.00 0.00 0.00 0.00 0.00 0.00 0.00 0.00 0.00 0.00 0.00 0.00 0.00 0.00 0.00 0.00 0.00 0.00 0.00 0.00 0.00 0.00 0.00 0.00 0.01 0.01 0.02
0.00 0.00 0.00 0.00 0.00 0.00 0.00 0.00 0.00 0.00 0.00 0.00 0.00 0.00 0.00 0.00 0.00 0.00 0.00 0.00 0.00 0.00 0.00 0.00 0.00 0.00 0.00 0.00 0.00 0.00 0.00 0.00 0.00 0.00 0.00 0.00 0.00 0.00 0.00 0.00 0.00 0.01 0.01
0.00 0.00 0.00 0.00 0.00 0.00 0.00 0.00 0.00 0.00 0.00 0.00 0.00 0.00 0.00 0.00 0.00 0.00 0.00 0.00 0.00 0.00 0.00 0.00 0.00 0.00 0.00 0.00 0.00 0.00 0.00 0.00 0.00 0.00 0.00 0.00 0.00 0.00 0.00 0.00 0.00 0.01 0.01
MSLP
1013.62 1013.74 1013.90 1014.08 1014.24 1014.37 1014.44 1014.48 1014.48 1014.45 1014.43 1014.40 1014.37 1014.34 1014.31 1014.26 1014.20 1014.14 1014.08 1014.02 1013.97 1013.93 1013.89 1013.82 1013.72 1013.58 1013.38 1013.12 1012.83 1012.52 1012.20 1011.90 1011.64 1011.41 1011.22 1011.04 1010.88 1010.71 1010.54 1010.38 1010.24 1010.14 1010.10
1013.30 1013.40 1013.55 1013.73 1013.91 1014.06 1014.17 1014.25 1014.29 1014.30 1014.29 1014.27 1014.23 1014.19 1014.15 1014.09 1014.03 1013.97 1013.91 1013.85 1013.79 1013.73 1013.65 1013.55 1013.41 1013.23 1013.01 1012.76 1012.49 1012.24 1012.00 1011.79 1011.61 1011.47 1011.33 1011.20 1011.04 1010.86 1010.65 1010.43 1010.22 1010.04 1009.93
1013.02 1013.12 1013.26 1013.44 1013.61 1013.78 1013.91 1014.01 1014.08 1014.11 1014.11 1014.10 1014.07 1014.02 1013.97 1013.92 1013.85 1013.79 1013.73 1013.67 1013.60 1013.52 1013.41 1013.28 1013.11 1012.90 1012.68 1012.44 1012.21 1012.00 1011.83 1011.69 1011.59 1011.51 1011.42 1011.31 1011.16 1010.96 1010.72 1010.44 1010.17 1009.94 1009.76
1012.77 1012.87 1013.01 1013.18 1013.35 1013.51 1013.64 1013.75 1013.83 1013.87 1013.89 1013.88 1013.86 1013.82 1013.77 1013.71 1013.65 1013.60 1013.54 1013.47 1013.40 1013.30 1013.18 1013.03 1012.84 1012.62 1012.39 1012.16 1011.96 1011.78 1011.65 1011.56 1011.50 1011.45 1011.38 1011.27 1011.11 1010.89 1010.61 1010.31 1010.00 1009.72 1009.50
1012.50 1012.62 1012.76 1012.92 1013.07 1013.22 1013.34 1013.45 1013.52 1013.57 1013.60 1013.60 1013.58 1013.55 1013.51 1013.46 1013.41 1013.36 1013.30 1013.24 1013.17 1013.08 1012.95 1012.79 1012.60 1012.38 1012.15 1011.92 1011.72 1011.55 1011.42 1011.33 1011.27 1011.20 1011.12 1010.99 1010.80 1010.56 1010.26 1009.93 1009.60 1009.30 1009.07
1012.19 1012.33 1012.48 1012.62 1012.76 1012.88 1012.99 1013.08 1013.15 1013.20 1013.23 1013.24 1013.23 1013.20 1013.16 1013.12 1013.08 1013.04 1013.00 1012.96 1012.90 1012.82 1012.70 1012.55 1012.36 1012.15 1011.92 1011.68 1011.46 1011.27 1011.11 1010.98 1010.86 1010.75 1010.61 1010.43 1010.21 1009.93 1009.62 1009.29 1008.97 1008.68 1008.46
1011.83 1011.99 1012.14 1012.27 1012.39 1012.49 1012.57 1012.65 1012.71 1012.75 1012.78 1012.79 1012.78 1012.76 1012.73 1012.69 1012.66 1012.63 1012.61 1012.58 1012.55 1012.49 1012.40 1012.28 1012.11 1011.91 1011.68 1011.43 1011.18 1010.94 1010.72 1010.51 1010.31 1010.11 1009.90 1009.66 1009.38 1009.08 1008.76 1008.45 1008.15 1007.90 1007.72
1011.43 1011.61 1011.76 1011.87 1011.97 1012.05 1012.11 1012.17 1012.21 1012.24 1012.26 1012.27 1012.25 1012.23 1012.19 1012.15 1012.12 1012.11 1012.10 1012.10 1012.09 1012.08 1012.04 1011.96 1011.83 1011.65 1011.43 1011.17 1010.89 1010.59 1010.29 1009.99 1009.69 1009.39 1009.08 1008.77 1008.45 1008.13 1007.82 1007.53 1007.28 1007.08 1006.95
1011.03 1011.21 1011.35 1011.46 1011.54 1011.59 1011.64 1011.67 1011.70 1011.71 1011.72 1011.70 1011.67 1011.62 1011.57 1011.52 1011.48 1011.47 1011.47 1011.50 1011.54 1011.58 1011.60 1011.57 1011.50 1011.37 1011.17 1010.91 1010.60 1010.25 1009.88 1009.49 1009.09 1008.70 1008.31 1007.94 1007.58 1007.24 1006.95 1006.69 1006.49 1006.35 1006.28
1010.66 1010.85 1010.98 1011.07 1011.13 1011.17 1011.20 1011.21 1011.22 1011.21 1011.18 1011.13 1011.06 1010.98 1010.90 1010.82 1010.77 1010.75 1010.77 1010.83 1010.92 1011.01 1011.10 1011.15 1011.14 1011.07 1010.91 1010.67 1010.35 1009.97 1009.54 1009.08 1008.61 1008.15 1007.69 1007.27 1006.89 1006.56 1006.28 1006.06 1005.91 1005.82 1005.80
1010.38 1010.56 1010.69 1010.77 1010.82 1010.84 1010.85 1010.85 1010.82 1010.78 1010.72 1010.62 1010.50 1010.37 1010.24 1010.12 1010.04 1010.01 1010.04 1010.12 1010.25 1010.41 1010.56 1010.69 1010.77 1010.76 1010.66 1010.45 1010.15 1009.77 1009.32 1008.82 1008.30 1007.79 1007.30 1006.86 1006.46 1006.14 1005.88 1005.70 1005.58 1005.53 1005.54
1010.22 1010.39 1010.51 1010.59 1010.63 1010.64 1010.64 1010.62 1010.57 1010.49 1010.38 1010.23 1010.05 1009.85 1009.66 1009.49 1009.37 1009.32 1009.34 1009.44 1009.61 1009.82 1010.04 1010.24 1010.39 1010.46 1010.42 1010.27 1010.00 1009.64 1009.19 1008.69 1008.16 1007.64 1007.14 1006.68 1006.30 1005.98 1005.74 1005.58 1005.49 1005.46 1005.48
1010.18 1010.35 1010.46 1010.54 1010.58 1010.60 1010.59 1010.56 1010.48 1010.36 1010.20 1009.99 1009.75 1009.49 1009.23 1009.00 1008.84 1008.76 1008.76 1008.87 1009.05 1009.30 1009.57 1009.84 1010.05 1010.18 1010.20 1010.10 1009.88 1009.55 1009.13 1008.65 1008.14 1007.63 1007.14 1006.70 1006.32 1006.02 1005.79 1005.63 1005.54 1005.51 1005.51
1010.24 1010.41 1010.53 1010.63 1010.68 1010.71 1010.71 1010.67 1010.57 1010.42 1010.22 1009.96 1009.65 1009.33 1009.01 1008.73 1008.51 1008.39 1008.38 1008.47 1008.66 1008.92 1009.22 1009.51 1009.76 1009.93 1010.00 1009.95 1009.77 1009.49 1009.11 1008.67 1008.19 1007.71 1007.24 1006.82 1006.46 1006.16 1005.93 1005.76 1005.65 1005.58 1005.56
1010.37 1010.55 1010.70 1010.81 1010.90 1010.95 1010.96 1010.93 1010.83 1010.66 1010.43 1010.12 1009.77 1009.40 1009.03 1008.70 1008.45 1008.29 1008.24 1008.31 1008.48 1008.73 1009.03 1009.32 1009.58 1009.76 1009.85 1009.82 1009.68 1009.43 1009.10 1008.70 1008.27 1007.82 1007.39 1006.99 1006.64 1006.33 1006.08 1005.88 1005.73 1005.61 1005.53
1010.51 1010.72 1010.90 1011.05 1011.18 1011.27 1011.32 1011.30 1011.21 1011.05 1010.80 1010.48 1010.11 1009.71 1009.31 1008.96 1008.67 1008.48 1008.40 1008.44 1008.57 1008.79 1009.04 1009.31 1009.54 1009.71 1009.79 1009.76 1009.64 1009.42 1009.12 1008.76 1008.37 1007.96 1007.56 1007.18 1006.83 1006.51 1006.23 1005.98 1005.76 1005.58 1005.42
1010.61 1010.87 1011.09 1011.30 1011.48 1011.62 1011.71 1011.73 1011.68 1011.53 1011.30 1010.99 1010.62 1010.22 1009.82 1009.45 1009.15 1008.94 1008.84 1008.83 1008.92 1009.09 1009.29 1009.50 1009.68 1009.80 1009.85 1009.81 1009.69 1009.48 1009.21 1008.88 1008.53 1008.16 1007.79 1007.42 1007.06 1006.72 1006.40 1006.09 1005.80 1005.52 1005.28
1010.66 1010.96 1011.25 1011.51 1011.75 1011.95 1012.09 1012.16 1012.15 1012.04 1011.85 1011.57 1011.23 1010.85 1010.48 1010.13 1009.84 1009.62 1009.50 1009.46 1009.51 1009.61 1009.75 1009.88 1010.00 1010.07 1010.07 1010.00 1009.87 1009.67 1009.41 1009.12 1008.80 1008.46 1008.11 1007.75 1007.39 1007.02 1006.65 1006.27 1005.90 1005.53 1005.19
1010.63 1010.99 1011.33 1011.66 1011.96 1012.21 1012.41 1012.54 1012.58 1012.52 1012.38 1012.15 1011.86 1011.54 1011.21 1010.90 1010.63 1010.43 1010.30 1010.24 1010.25 1010.30 1010.37 1010.44 1010.48 1010.49 1010.44 1010.34 1010.19 1009.99 1009.75 1009.48 1009.19 1008.88 1008.56 1008.21 1007.84 1007.45 1007.03 1006.59 1006.13 1005.67 1005.22
1010.55 1010.96 1011.35 1011.73 1012.08 1012.39 1012.64 1012.82 1012.91 1012.91 1012.83 1012.66 1012.44 1012.18 1011.91 1011.65 1011.43 1011.25 1011.13 1011.06 1011.04 1011.04 1011.06 1011.06 1011.05 1011.00 1010.91 1010.78 1010.61 1010.41 1010.19 1009.95 1009.69 1009.41 1009.11 1008.78 1008.41 1007.99 1007.54 1007.04 1006.51 1005.96 1005.42
1010.41 1010.87 1011.31 1011.73 1012.12 1012.47 1012.76 1012.98 1013.11 1013.17 1013.14 1013.04 1012.88 1012.69 1012.49 1012.29 1012.12 1011.98 1011.88 1011.81 1011.76 1011.74 1011.71 1011.66 1011.60 1011.50 1011.37 1011.22 1011.05 1010.85 1010.65 1010.44 1010.21 1009.96 1009.69 1009.37 1009.01 1008.59 1008.11 1007.57 1006.99 1006.38 1005.76
1010.26 1010.75 1011.22 1011.67 1012.08 1012.45 1012.76 1013.00 1013.17 1013.26 1013.28 1013.23 1013.14 1013.01 1012.87 1012.73 1012.61 1012.51 1012.43 1012.37 1012.32 1012.26 1012.20 1012.12 1012.01 1011.88 1011.73 1011.56 1011.38 1011.19 1011.00 1010.81 1010.61 1010.40 1010.15 1009.86 1009.51 1009.10 1008.62 1008.07 1007.46 1006.82 1006.15
1010.10 1010.61 1011.09 1011.55 1011.97 1012.34 1012.65 1012.90 1013.08 1013.19 1013.24 1013.23 1013.18 1013.11 1013.02 1012.93 1012.86 1012.79 1012.73 1012.67 1012.61 1012.54 1012.45 1012.33 1012.20 1012.04 1011.86 1011.67 1011.48 1011.30 1011.12 1010.94 1010.77 1010.57 1010.35 1010.09 1009.76 1009.38 1008.92 1008.38 1007.79 1007.14 1006.46
1009.94 1010.45 1010.94 1011.39 1011.80 1012.16 1012.46 1012.70 1012.87 1012.99 1013.05 1013.06 1013.04 1013.01 1012.96 1012.91 1012.86 1012.81 1012.76 1012.71 1012.64 1012.54 1012.43 1012.28 1012.11 1011.92 1011.71 1011.50 1011.30 1011.11 1010.93 1010.76 1010.59 1010.41 1010.21 1009.97 1009.68 1009.32 1008.90 1008.41 1007.85 1007.24 1006.59
1009.77 1010.28 1010.76 1011.20 1011.58 1011.92 1012.20 1012.42 1012.58 1012.68 1012.75 1012.77 1012.77 1012.76 1012.73 1012.70 1012.67 1012.63 1012.58 1012.52 1012.43 1012.31 1012.16 1011.98 1011.77 1011.54 1011.31 1011.07 1010.84 1010.63 1010.43 1010.24 1010.07 1009.89 1009.70 1009.48 1009.22 1008.90 1008.53 1008.10 1007.60 1007.06 1006.48
1009.59 1010.10 1010.56 1010.98 1011.34 1011.65 1011.90 1012.10 1012.24 1012.33 1012.39 1012.42 1012.43 1012.43 1012.42 1012.40 1012.37 1012.33 1012.27 1012.19 1012.07 1011.92 1011.73 1011.51 1011.26 1010.99 1010.72 1010.44 1010.18 1009.93 1009.70 1009.49 1009.30 1009.11 1008.91 1008.70 1008.45 1008.17 1007.85 1007.48 1007.07 1006.61 1006.11
Thickness
5695 5691 5688 5685 5681 5678 5674 5672 5669 5666 5664 5661 5659 5657 5655 5653 5651 5649 5647 5646 5644 5644 5643 5643 5644 5645 5646 5648 5650 5652 5654 5656 5659 5664 5669 5675 5681 5687 5692 5697 5702 5706 5710
5696 5692 5689 5686 5682 5679 5676 5673 5670 5667 5664 5661 5659 5656 5654 5652 5650 5647 5645 5643 5642 5641 5640 5639 5639 5641 5641 5642 5643 5646 5648 5650 5653 5656 5660 5666 5672 5677 5683 5688 5693 5698 5702
5697 5693 5690 5686 5683 5679 5677 5674 5671 5667 5665 5662 5659 5656 5654 5651 5649 5647 5644 5642 5641 5639 5638 5637 5636 5636 5636 5637 5638 5640 5643 5646 5647 5650 5653 5657 5662 5668 5672 5678 5684 5688 5693
5698 5694 5690 5687 5684 5681 5677 5674 5671 5668 5665 5662 5659 5656 5654 5651 5649 5647 5645 5642 5641 5639 5638 5637 5636 5635 5635 5635 5636 5637 5638 5640 5642 5644 5646 5649 5653 5658 5662 5666 5671 5677 5683
5699 5695 5692 5689 5685 5681 5678 5675 5671 5668 5665 5662 5659 5656 5654 5652 5651 5648 5645 5643 5641 5639 5638 5637 5636 5636 5636 5636 5636 5636 5636 5636 5637 5638 5640 5642 5645 5648 5652 5656 5660 5666 5672
5699 5696 5694 5689 5685 5682 5678 5675 5671 5668 5665 5662 5659 5656 5654 5653 5652 5651 5648 5644 5641 5639 5637 5637 5637 5636 5636 5636 5637 5637 5637 5635 5635 5635 5636 5637 5640 5642 5644 5647 5650 5655 5661
5701 5698 5694 5690 5686 5683 5679 5675 5671 5668 5665 5661 5659 5656 5654 5653 5653 5651 5649 5645 5642 5639 5637 5636 5636 5636 5634 5634 5634 5635 5634 5634 5634 5633 5633 5634 5636 5638 5639 5642 5644 5647 5653
5701 5698 5695 5691 5687 5683 5679 5675 5672 5668 5664 5661 5659 5657 5654 5654 5654 5652 5650 5646 5642 5640 5638 5636 5634 5634 5634 5633 5632 5632 5631 5632 5632 5632 5632 5633 5635 5636 5637 5638 5640 5643 5647
5700 5698 5696 5692 5687 5683 5679 5676 5672 5668 5664 5661 5659 5657 5654 5654 5654 5652 5650 5645 5642 5640 5639 5637 5635 5633 5634 5633 5631 5630 5630 5630 5631 5631 5631 5632 5633 5634 5635 5635 5636 5637 5640
5701 5698 5696 5692 5687 5684 5680 5676 5672 5668 5665 5662 5659 5657 5655 5654 5654 5652 5650 5644 5641 5639 5638 5637 5636 5634 5634 5633 5630 5629 5628 5629 5629 5629 5629 5630 5631 5632 5632 5632 5632 5633 5635
5700 5697 5694 5690 5686 5683 5679 5675 5671 5668 5664 5661 5659 5658 5656 5655 5654 5652 5650 5644 5641 5639 5637 5636 5635 5635 5633 5632 5631 5628 5628 5628 5628 5627 5627 5628 5629 5629 5630 5630 5630 5630 5631
5696 5693 5690 5687 5684 5682 5676 5673 5669 5665 5662 5659 5657 5656 5656 5655 5653 5652 5650 5647 5644 5638 5636 5635 5634 5633 5632 5631 5630 5629 5629 5628 5626 5625 5625 5625 5626 5627 5627 5627 5628 5628 5629
5691 5687 5684 5682 5678 5676 5672 5669 5665 5662 5658 5656 5654 5653 5653 5653 5651 5651 5650 5648 5644 5639 5637 5635 5633 5631 5629 5628 5627 5627 5626 5625 5623 5623 5622 5623 5623 5624 5624 5625 5625 5626 5627
5685 5681 5678 5675 5672 5669 5667 5664 5660 5657 5654 5652 5650 5649 5648 5648 5648 5647 5646 5644 5642 5639 5634 5631 5629 5627 5625 5623 5623 5622 5622 5621 5620 5619 5619 5620 5620 5620 5621 5621 5621 5622 5623
5678 5674 5671 5668 5665 5662 5659 5656 5654 5651 5649 5646 5644 5643 5642 5642 5644 5644 5642 5639 5636 5633 5629 5625 5622 5620 5618 5617 5617 5617 5617 5617 5616 5615 5615 5616 5616 5617 5617 5617 5617 5617 5617
5670 5666 5662 5659 5656 5654 5651 5648 5646 5644 5643 5641 5639 5638 5636 5636 5638 5639 5638 5635 5631 5628 5622 5617 5614 5612 5610 5610 5610 5610 5611 5611 5611 5611 5611 5611 5611 5612 5612 5612 5612 5612 5613
5663 5658 5655 5651 5648 5645 5642 5639 5635 5634 5634 5632 5630 5629 5628 5628 5629 5629 5627 5625 5621 5618 5612 5608 5606 5604 5603 5603 5602 5602 5602 5603 5603 5604 5605 5605 5606 5607 5607 5607 5607 5607 5608
5655 5652 5647 5643 5639 5636 5632 5629 5626 5623 5620 5617 5618 5618 5617 5617 5616 5615 5614 5612 5607 5604 5601 5598 5595 5594 5593 5593 5593 5593 5593 5593 5593 5594 5595 5595 5596 5598 5600 5601 5602 5602 5603
5646 5641 5637 5633 5630 5626 5623 5619 5615 5612 5608 5605 5604 5603 5603 5602 5601 5600 5599 5596 5593 5590 5587 5585 5584 5583 5582 5582 5581 5581 5581 5580 5580 5580 5581 5582 5584 5586 5588 5590 5593 5594 5596
5637 5635 5630 5624 5620 5616 5612 5608 5604 5600 5597 5593 5591 5589 5588 5587 5586 5583 5582 5580 5578 5576 5574 5572 5571 5570 5569 5569 5568 5568 5568 5567 5567 5567 5567 5568 5569 5572 5574 5577 5580 5583 5586
5627 5625 5622 5614 5609 5605 5601 5597 5593 5589 5585 5582 5579 5578 5577 5573 5570 5568 5567 5565 5564 5562 5561 5560 5558 5558 5557 5557 5556 5555 5555 5555 5554 5554 5554 5555 5557 5558 5560 5563 5566 5569 5573
5616 5612 5607 5603 5598 5594 5589 5585 5581 5578 5574 5571 5567 5565 5565 5560 5557 5555 5554 5553 5552 5550 5549 5548 5546 5546 5545 5544 5543 5543 5542 5542 5542 5541 5541 5542 5543 5544 5546 5548 5551 5554 5557
5605 5600 5595 5591 5587 5584 5578 5574 5570 5566 5563 5559 5556 5553 5550 5548 5545 5544 5542 5541 5540 5539 5538 5537 5535 5534 5534 5533 5532 5530 5529 5529 5528 5528 5527 5528 5528 5529 5531 5532 5535 5537 5541
5593 5589 5584 5579 5574 5570 5566 5562 5558 5555 5551 5548 5544 5541 5538 5536 5534 5532 5531 5530 5529 5528 5527 5525 5524 5523 5522 5521 5520 5518 5517 5516 5515 5514 5513 5513 5514 5514 5515 5516 5518 5520 5523
5580 5576 5572 5567 5563 5558 5554 5550 5546 5543 5540 5536 5533 5530 5527 5524 5522 5521 5520 5518 5517 5516 5515 5514 5512 5511 5510 5508 5507 5506 5504 5503 5501 5500 5499 5498 5498 5498 5499 5499 5500 5502 5504
5567 5563 5559 5554 5550 5546 5542 5539 5535 5531 5528 5525 5521 5518 5515 5513 5511 5509 5508 5507 5505 5504 5503 5501 5500 5498 5497 5495 5494 5492 5490 5488 5487 5485 5483 5482 5482 5482 5481 5481 5482 5483 5484